New Haven, CT

12:29 AM EST on December 12, 2017 (GMT -0500)
Tweed-New Haven

Weather History for KHVN - August, 2012

Change the Weather History Date:

Tuesday, August 21, 2012

  Actual Average Record
Temperature  
Mean Temperature 74 °F -  
Max Temperature 82 °F 78 °F 96 °F (1983)
Min Temperature 66 °F 62 °F 32 °F (2001)
Cooling Degree Days 8    
Growing Degree Days 24 (Base 50)    
Moisture  
Dew Point 60 °F    
Average Humidity 64    
Maximum Humidity 87    
Minimum Humidity 38    
Precipitation  
Precipitation 0.00 in - - ()
Sea Level Pressure  
Sea Level Pressure 30.01 in    
Wind  
Wind Speed 3 mph (WSW)    
Max Wind Speed 9 mph    
Max Gust Speed -    
Visibility 10 miles    
Events      
Averages and records for this station are not official NWS values.
T = Trace of Precipitation, MM = Missing Value Source: NWS Daily Summary

Daily Weather History Graph

Daily Weather History Graph

Search for Another Location

Airport or City:

Trip Planner

Search our weather history database for the weather conditions in past years. The results will help you decide how hot, cold, wet, or windy it might be!

Date:

Astronomy

Aug. 21, 2012 Rise Set
Actual Time 6:07 AM EDT 7:41 PM EDT
Civil Twilight 5:38 AM EDT 8:10 PM EDT
Nautical Twilight 5:03 AM EDT 8:45 PM EDT
Astronomical Twilight 4:25 AM EDT 9:22 PM EDT
Moon 10:38 AM EDT (8/21) 9:35 PM EDT (8/21)
Length of Visible Light 14h 31m
Length of Day
13h 33m
Waxing Crescent, 19% of the Moon is Illuminated
Aug 21
Waxing Crescent
Aug 24
First Quarter
Aug 31
Full
Sep 8
Last Quarter
Sep 15
New

Hourly Weather History & Observations

Time (EDT) Temp. Heat Index Dew Point Humidity Pressure Visibility Wind Dir Wind Speed Gust Speed Precip Events Conditions
12:53 AM 71.1 °F - 62.1 °F 73% 29.93 in 10.0 mi Calm Calm - N/A   Scattered Clouds
1:53 AM 68.0 °F - 62.6 °F 83% 29.92 in 10.0 mi Calm Calm - N/A   Scattered Clouds
2:53 AM 66.9 °F - 63.0 °F 87% 29.93 in 10.0 mi Calm Calm - N/A   Scattered Clouds
3:53 AM 68.0 °F - 62.1 °F 81% 29.94 in 10.0 mi Calm Calm - N/A   Overcast
4:53 AM 69.1 °F - 62.1 °F 78% 29.95 in 10.0 mi Calm Calm - N/A   Overcast
5:53 AM 69.1 °F - 61.0 °F 75% 29.96 in 10.0 mi NNW 4.6 mph - N/A   Overcast
6:53 AM 69.1 °F - 61.0 °F 75% 29.98 in 10.0 mi Calm Calm - N/A   Mostly Cloudy
7:53 AM 70.0 °F - 61.0 °F 73% 30.00 in 10.0 mi North 4.6 mph - N/A   Clear
8:53 AM 73.0 °F - 60.1 °F 64% 30.01 in 10.0 mi North 6.9 mph - N/A   Mostly Cloudy
9:53 AM 75.9 °F - 57.0 °F 52% 30.01 in 10.0 mi Variable 6.9 mph - N/A   Mostly Cloudy
10:53 AM 79.0 °F - 54.0 °F 42% 30.02 in 10.0 mi North 4.6 mph - N/A   Mostly Cloudy
11:53 AM 80.1 °F - 52.0 °F 38% 30.02 in 10.0 mi Variable 5.8 mph - N/A   Mostly Cloudy
12:53 PM 80.1 °F 80.1 °F 55.0 °F 42% 30.03 in 10.0 mi WNW 8.1 mph - N/A   Scattered Clouds
1:53 PM 81.0 °F 80.7 °F 55.0 °F 41% 30.03 in 10.0 mi Variable 4.6 mph - N/A   Scattered Clouds
2:53 PM 79.0 °F - 61.0 °F 54% 30.02 in 10.0 mi SSW 8.1 mph - N/A   Mostly Cloudy
3:53 PM 79.0 °F - 61.0 °F 54% 30.02 in 10.0 mi SSW 6.9 mph - N/A   Clear
4:53 PM 78.1 °F - 62.1 °F 58% 30.04 in 10.0 mi SW 9.2 mph - N/A   Mostly Cloudy
5:53 PM 77.0 °F - 60.1 °F 56% 30.03 in 10.0 mi SSW 5.8 mph - N/A   Clear
6:53 PM 77.0 °F - 61.0 °F 58% 30.04 in 10.0 mi SW 4.6 mph - N/A   Clear
7:53 PM 73.9 °F - 61.0 °F 64% 30.05 in 10.0 mi Calm Calm - N/A   Clear
8:53 PM 72.0 °F - 62.1 °F 71% 30.07 in 10.0 mi Calm Calm - N/A   Clear
9:53 PM 72.0 °F - 63.0 °F 73% 30.09 in 10.0 mi Calm Calm - N/A   Clear
10:53 PM 73.9 °F - 64.9 °F 73% 30.09 in 10.0 mi SSW 3.5 mph - N/A   Clear
11:53 PM 73.9 °F - 64.9 °F 73% 30.10 in 10.0 mi WSW 3.5 mph - N/A   Clear